"Period start","avg(HW err(1)/warn(2) (#))","avg(Visibility (m))","avg(Weather code (#))","avg(Precip intensity (mm/h))","min(HW err(1)/warn(2) (#))","max(HW err(1)/warn(2) (#))","std(HW err(1)/warn(2) (#))","med(HW err(1)/warn(2) (#))","min(Visibility (m))","max(Visibility (m))","std(Visibility (m))","med(Visibility (m))","min(Weather code (#))","max(Weather code (#))","std(Weather code (#))","med(Weather code (#))","min(Precip intensity (mm/h))","max(Precip intensity (mm/h))","std(Precip intensity (mm/h))","med(Precip intensity (mm/h))"
2017-04-07 00:00:00,2,42002,0,0.00,2,2,0,2,33859,50000,5462,43293,0,0,0,0,0.00,0.00,0.00,0.00
2017-04-07 00:10:00,2,40348,0,0.00,2,2,0,2,31522,50000,6080,40135,0,0,0,0,0.00,0.00,0.00,0.00
2017-04-07 00:20:00,2,41388,0,0.00,2,2,0,2,28195,50000,7932,44576,0,0,0,0,0.00,0.00,0.00,0.00
2017-04-07 00:30:00,2,42983,0,0.00,2,2,0,2,27458,50000,6798,43932,0,0,0,0,0.00,0.00,0.00,0.00
2017-04-07 00:40:00,2,39826,0,0.00,2,2,0,2,29840,50000,6646,38996,0,0,0,0,0.00,0.00,0.00,0.00
2017-04-07 00:50:00,2,48389,0,0.00,2,2,0,2,43311,50000,2294,50000,0,0,0,0,0.00,0.00,0.00,0.00
2017-04-07 01:00:00,2,36212,0,0.00,2,2,0,2,21698,49179,9423,35884,0,0,0,0,0.00,0.00,0.00,0.00
2017-04-07 01:10:00,2,39976,0,0.00,2,2,0,2,27217,47826,6233,39226,0,0,0,0,0.00,0.00,0.00,0.00
2017-04-07 01:20:00,2,32055,0,0.00,2,2,0,2,12808,49273,9693,32748,0,0,0,0,0.00,0.00,0.00,0.00
2017-04-07 01:30:00,2,39216,0,0.00,2,2,0,2,35959,49068,3905,37640,0,0,0,0,0.00,0.00,0.00,0.00
2017-04-07 01:40:00,2,47541,0,0.00,2,2,0,2,36825,50000,4616,50000,0,0,0,0,0.00,0.00,0.00,0.00
2017-04-07 01:50:00,2,46352,0,0.00,2,2,0,2,35856,50000,4221,47237,0,0,0,0,0.00,0.00,0.00,0.00
2017-04-07 02:00:00,2,43585,0,0.00,2,2,0,2,34177,50000,6358,45480,0,0,0,0,0.00,0.00,0.00,0.00
2017-04-07 02:10:00,2,46155,0,0.00,2,2,0,2,36707,50000,4244,47866,0,0,0,0,0.00,0.00,0.00,0.00
2017-04-07 02:20:00,2,46686,0,0.00,2,2,0,2,36079,50000,4367,49198,0,0,0,0,0.00,0.00,0.00,0.00
2017-04-07 02:30:00,2,45758,0,0.00,2,2,0,2,31028,50000,6393,49492,0,0,0,0,0.00,0.00,0.00,0.00
2017-04-07 02:40:00,2,42608,0,0.00,2,2,0,2,32699,50000,5388,42080,0,0,0,0,0.00,0.00,0.00,0.00
2017-04-07 02:50:00,2,46314,0,0.00,2,2,0,2,39984,50000,3985,48032,0,0,0,0,0.00,0.00,0.00,0.00
2017-04-07 03:00:00,2,46551,0,0.00,2,2,0,2,41566,50000,3287,47611,0,0,0,0,0.00,0.00,0.00,0.00
2017-04-07 03:10:00,2,47219,0,0.00,2,2,0,2,42469,50000,2935,48434,0,0,0,0,0.00,0.00,0.00,0.00
2017-04-07 03:20:00,2,46402,0,0.00,2,2,0,2,35498,50000,4789,48474,0,0,0,0,0.00,0.00,0.00,0.00
2017-04-07 03:30:00,2,47141,0,0.00,2,2,0,2,40350,50000,3238,48273,0,0,0,0,0.00,0.00,0.00,0.00
2017-04-07 03:40:00,2,46524,0,0.00,2,2,0,2,32208,50000,5447,49658,0,0,0,0,0.00,0.00,0.00,0.00
2017-04-07 03:50:00,2,45196,0,0.00,2,2,0,2,36634,50000,5038,47810,0,0,0,0,0.00,0.00,0.00,0.00
2017-04-07 04:00:00,2,45310,0,0.00,2,2,0,2,37986,50000,4366,45576,0,0,0,0,0.00,0.00,0.00,0.00
2017-04-07 04:10:00,2,47866,0,0.00,2,2,0,2,41376,50000,2706,49103,0,0,0,0,0.00,0.00,0.00,0.00
2017-04-07 04:20:00,2,44576,0,0.00,2,2,0,2,35636,50000,5509,47060,0,0,0,0,0.00,0.00,0.00,0.00
2017-04-07 04:30:00,2,46619,0,0.00,2,2,0,2,39338,50000,3762,48029,0,0,0,0,0.00,0.00,0.00,0.00
2017-04-07 04:40:00,2,48142,0,0.00,2,2,0,2,42942,50000,2425,49476,0,0,0,0,0.00,0.00,0.00,0.00
2017-04-07 04:50:00,2,44177,0,0.00,2,2,0,2,35155,50000,5058,45894,0,0,0,0,0.00,0.00,0.00,0.00
2017-04-07 05:00:00,2,45122,0,0.00,2,2,0,2,36927,50000,4747,46869,0,0,0,0,0.00,0.00,0.00,0.00
2017-04-07 05:10:00,2,46767,0,0.00,2,2,0,2,39638,50000,3318,48058,0,0,0,0,0.00,0.00,0.00,0.00
2017-04-07 05:20:00,2,46108,0,0.00,2,2,0,2,40845,50000,3553,46628,0,0,0,0,0.00,0.00,0.00,0.00
2017-04-07 05:30:00,2,49038,0,0.00,2,2,0,2,41724,50000,2471,50000,0,0,0,0,0.00,0.00,0.00,0.00
2017-04-07 05:40:00,2,40710,0,0.00,2,2,0,2,31942,50000,6454,41055,0,0,0,0,0.00,0.00,0.00,0.00
2017-04-07 05:50:00,2,48141,0,0.00,2,2,0,2,40050,50000,3243,50000,0,0,0,0,0.00,0.00,0.00,0.00
2017-04-07 06:00:00,2,49625,0,0.00,2,2,0,2,48368,50000,617,50000,0,0,0,0,0.00,0.00,0.00,0.00
2017-04-07 06:10:00,2,45969,0,0.00,2,2,0,2,36596,50000,4649,47996,0,0,0,0,0.00,0.00,0.00,0.00
2017-04-07 06:20:00,2,48293,0,0.00,2,2,0,2,46111,50000,1603,49040,0,0,0,0,0.00,0.00,0.00,0.00
2017-04-07 06:30:00,2,47638,0,0.00,2,2,0,2,41514,50000,2912,48794,0,0,0,0,0.00,0.00,0.00,0.00
2017-04-07 06:40:00,2,49530,0,0.00,2,2,0,2,47303,50000,944,50000,0,0,0,0,0.00,0.00,0.00,0.00
2017-04-07 06:50:00,2,49237,0,0.00,2,2,0,2,46549,50000,1301,50000,0,0,0,0,0.00,0.00,0.00,0.00
2017-04-07 07:00:00,2,45440,0,0.00,2,2,0,2,38906,50000,4204,46483,0,0,0,0,0.00,0.00,0.00,0.00
2017-04-07 07:10:00,2,47828,0,0.00,2,2,0,2,39053,50000,3573,50000,0,0,0,0,0.00,0.00,0.00,0.00
2017-04-07 07:20:00,2,42890,0,0.00,2,2,0,2,32691,50000,6073,42337,0,0,0,0,0.00,0.00,0.00,0.00
2017-04-07 07:30:00,2,46037,0,0.00,2,2,0,2,37701,50000,4126,46755,0,0,0,0,0.00,0.00,0.00,0.00
2017-04-07 07:40:00,2,47797,0,0.00,2,2,0,2,42382,50000,3315,50000,0,0,0,0,0.00,0.00,0.00,0.00
2017-04-07 07:50:00,2,41734,0,0.00,2,2,0,2,30285,50000,6305,41756,0,0,0,0,0.00,0.00,0.00,0.00
2017-04-07 08:00:00,2,49472,0,0.00,2,2,0,2,46241,50000,1122,50000,0,0,0,0,0.00,0.00,0.00,0.00
2017-04-07 08:10:00,2,50000,0,0.00,2,2,0,2,50000,50000,0,50000,0,0,0,0,0.00,0.00,0.00,0.00
2017-04-07 08:20:00,2,49860,0,0.00,2,2,0,2,49191,50000,261,50000,0,0,0,0,0.00,0.00,0.00,0.00
2017-04-07 08:30:00,2,49955,0,0.00,2,2,0,2,49549,50000,135,50000,0,0,0,0,0.00,0.00,0.00,0.00
2017-04-07 08:40:00,2,49280,0,0.00,2,2,0,2,45331,50000,1410,50000,0,0,0,0,0.00,0.00,0.00,0.00
2017-04-07 08:50:00,2,49086,0,0.00,2,2,0,2,44936,50000,1841,50000,0,0,0,0,0.00,0.00,0.00,0.00
2017-04-07 09:00:00,2,50000,0,0.00,2,2,0,2,50000,50000,0,50000,0,0,0,0,0.00,0.00,0.00,0.00
2017-04-07 09:10:00,2,50000,0,0.00,2,2,0,2,50000,50000,0,50000,0,0,0,0,0.00,0.00,0.00,0.00
2017-04-07 09:20:00,2,50000,0,0.00,2,2,0,2,50000,50000,0,50000,0,0,0,0,0.00,0.00,0.00,0.00
2017-04-07 09:30:00,2,49791,0,0.00,2,2,0,2,48071,50000,575,50000,0,0,0,0,0.00,0.00,0.00,0.00
2017-04-07 09:40:00,2,50000,0,0.00,2,2,0,2,50000,50000,0,50000,0,0,0,0,0.00,0.00,0.00,0.00
2017-04-07 09:50:00,2,50000,0,0.00,2,2,0,2,50000,50000,0,50000,0,0,0,0,0.00,0.00,0.00,0.00
2017-04-07 10:00:00,2,50000,0,0.00,2,2,0,2,50000,50000,0,50000,0,0,0,0,0.00,0.00,0.00,0.00
2017-04-07 10:10:00,2,50000,0,0.00,2,2,0,2,50000,50000,0,50000,0,0,0,0,0.00,0.00,0.00,0.00
2017-04-07 10:20:00,2,50000,0,0.00,2,2,0,2,50000,50000,0,50000,0,0,0,0,0.00,0.00,0.00,0.00
2017-04-07 10:30:00,2,50000,0,0.00,2,2,0,2,50000,50000,0,50000,0,0,0,0,0.00,0.00,0.00,0.00
2017-04-07 10:40:00,2,50000,0,0.00,2,2,0,2,50000,50000,0,50000,0,0,0,0,0.00,0.00,0.00,0.00
2017-04-07 10:50:00,2,50000,0,0.00,2,2,0,2,50000,50000,0,50000,0,0,0,0,0.00,0.00,0.00,0.00
2017-04-07 11:00:00,2,50000,0,0.00,2,2,0,2,50000,50000,0,50000,0,0,0,0,0.00,0.00,0.00,0.00
2017-04-07 11:10:00,2,50000,0,0.00,2,2,0,2,50000,50000,0,50000,0,0,0,0,0.00,0.00,0.00,0.00
2017-04-07 11:20:00,2,50000,0,0.00,2,2,0,2,50000,50000,0,50000,0,0,0,0,0.00,0.00,0.00,0.00
2017-04-07 11:30:00,2,50000,0,0.00,2,2,0,2,50000,50000,0,50000,0,0,0,0,0.00,0.00,0.00,0.00
2017-04-07 11:40:00,2,50000,0,0.00,2,2,0,2,50000,50000,0,50000,0,0,0,0,0.00,0.00,0.00,0.00
2017-04-07 11:50:00,2,50000,0,0.00,2,2,0,2,50000,50000,0,50000,0,0,0,0,0.00,0.00,0.00,0.00
2017-04-07 12:00:00,2,50000,0,0.00,2,2,0,2,50000,50000,0,50000,0,0,0,0,0.00,0.00,0.00,0.00
2017-04-07 12:10:00,2,50000,0,0.00,2,2,0,2,50000,50000,0,50000,0,0,0,0,0.00,0.00,0.00,0.00
2017-04-07 12:20:00,2,50000,0,0.00,2,2,0,2,50000,50000,0,50000,0,0,0,0,0.00,0.00,0.00,0.00
2017-04-07 12:30:00,2,49990,0,0.00,2,2,0,2,49903,50000,29,50000,0,0,0,0,0.00,0.00,0.00,0.00
2017-04-07 12:40:00,2,50000,0,0.00,2,2,0,2,50000,50000,0,50000,0,0,0,0,0.00,0.00,0.00,0.00
2017-04-07 12:50:00,2,50000,0,0.00,2,2,0,2,50000,50000,0,50000,0,0,0,0,0.00,0.00,0.00,0.00
2017-04-07 13:00:00,2,50000,0,0.00,2,2,0,2,50000,50000,0,50000,0,0,0,0,0.00,0.00,0.00,0.00
2017-04-07 13:10:00,2,50000,0,0.00,2,2,0,2,50000,50000,0,50000,0,0,0,0,0.00,0.00,0.00,0.00
2017-04-07 13:20:00,2,50000,0,0.00,2,2,0,2,50000,50000,0,50000,0,0,0,0,0.00,0.00,0.00,0.00
2017-04-07 13:30:00,2,50000,0,0.00,2,2,0,2,50000,50000,0,50000,0,0,0,0,0.00,0.00,0.00,0.00
2017-04-07 13:40:00,2,50000,0,0.00,2,2,0,2,50000,50000,0,50000,0,0,0,0,0.00,0.00,0.00,0.00
2017-04-07 13:50:00,2,50000,0,0.00,2,2,0,2,50000,50000,0,50000,0,0,0,0,0.00,0.00,0.00,0.00
2017-04-07 14:00:00,2,50000,0,0.00,2,2,0,2,50000,50000,0,50000,0,0,0,0,0.00,0.00,0.00,0.00
2017-04-07 14:10:00,2,50000,0,0.00,2,2,0,2,50000,50000,0,50000,0,0,0,0,0.00,0.00,0.00,0.00
2017-04-07 14:20:00,2,50000,0,0.00,2,2,0,2,50000,50000,0,50000,0,0,0,0,0.00,0.00,0.00,0.00
2017-04-07 14:30:00,2,50000,0,0.00,2,2,0,2,50000,50000,0,50000,0,0,0,0,0.00,0.00,0.00,0.00
2017-04-07 14:40:00,2,50000,0,0.00,2,2,0,2,50000,50000,0,50000,0,0,0,0,0.00,0.00,0.00,0.00
2017-04-07 14:50:00,2,50000,0,0.00,2,2,0,2,50000,50000,0,50000,0,0,0,0,0.00,0.00,0.00,0.00
2017-04-07 15:00:00,2,50000,0,0.00,2,2,0,2,50000,50000,0,50000,0,0,0,0,0.00,0.00,0.00,0.00
2017-04-07 15:10:00,2,50000,0,0.00,2,2,0,2,50000,50000,0,50000,0,0,0,0,0.00,0.00,0.00,0.00
2017-04-07 15:20:00,2,50000,0,0.00,2,2,0,2,50000,50000,0,50000,0,0,0,0,0.00,0.00,0.00,0.00
2017-04-07 15:30:00,2,50000,0,0.00,2,2,0,2,50000,50000,0,50000,0,0,0,0,0.00,0.00,0.00,0.00
2017-04-07 15:40:00,2,50000,0,0.00,2,2,0,2,50000,50000,0,50000,0,0,0,0,0.00,0.00,0.00,0.00
2017-04-07 15:50:00,2,50000,0,0.00,2,2,0,2,50000,50000,0,50000,0,0,0,0,0.00,0.00,0.00,0.00
2017-04-07 16:00:00,2,50000,0,0.00,2,2,0,2,50000,50000,0,50000,0,0,0,0,0.00,0.00,0.00,0.00
2017-04-07 16:10:00,2,50000,0,0.00,2,2,0,2,50000,50000,0,50000,0,0,0,0,0.00,0.00,0.00,0.00
2017-04-07 16:20:00,2,50000,0,0.00,2,2,0,2,50000,50000,0,50000,0,0,0,0,0.00,0.00,0.00,0.00
2017-04-07 16:30:00,2,50000,0,0.00,2,2,0,2,50000,50000,0,50000,0,0,0,0,0.00,0.00,0.00,0.00
2017-04-07 16:40:00,2,49874,0,0.00,2,2,0,2,48744,50000,377,50000,0,0,0,0,0.00,0.00,0.00,0.00
2017-04-07 16:50:00,2,50000,0,0.00,2,2,0,2,50000,50000,0,50000,0,0,0,0,0.00,0.00,0.00,0.00
2017-04-07 17:00:00,2,50000,0,0.00,2,2,0,2,50000,50000,0,50000,0,0,0,0,0.00,0.00,0.00,0.00
2017-04-07 17:10:00,2,50000,0,0.00,2,2,0,2,50000,50000,0,50000,0,0,0,0,0.00,0.00,0.00,0.00
2017-04-07 17:20:00,2,50000,0,0.00,2,2,0,2,50000,50000,0,50000,0,0,0,0,0.00,0.00,0.00,0.00
2017-04-07 17:30:00,2,50000,0,0.00,2,2,0,2,50000,50000,0,50000,0,0,0,0,0.00,0.00,0.00,0.00
2017-04-07 17:40:00,2,49905,0,0.00,2,2,0,2,49481,50000,191,50000,0,0,0,0,0.00,0.00,0.00,0.00
2017-04-07 17:50:00,2,50000,0,0.00,2,2,0,2,50000,50000,0,50000,0,0,0,0,0.00,0.00,0.00,0.00
2017-04-07 18:00:00,2,49466,0,0.00,2,2,0,2,47367,50000,1043,50000,0,0,0,0,0.00,0.00,0.00,0.00
2017-04-07 18:10:00,2,50000,0,0.00,2,2,0,2,50000,50000,0,50000,0,0,0,0,0.00,0.00,0.00,0.00
2017-04-07 18:20:00,2,49842,0,0.00,2,2,0,2,48610,50000,415,50000,0,0,0,0,0.00,0.00,0.00,0.00
2017-04-07 18:30:00,2,48800,0,0.00,2,2,0,2,45631,50000,1701,50000,0,0,0,0,0.00,0.00,0.00,0.00
2017-04-07 18:40:00,2,48298,0,0.00,2,2,0,2,45495,50000,1828,49174,0,0,0,0,0.00,0.00,0.00,0.00
2017-04-07 18:50:00,2,49982,0,0.00,2,2,0,2,49825,50000,52,50000,0,0,0,0,0.00,0.00,0.00,0.00
2017-04-07 19:00:00,2,49548,0,0.00,2,2,0,2,48129,50000,704,50000,0,0,0,0,0.00,0.00,0.00,0.00
2017-04-07 19:10:00,2,46978,0,0.00,2,2,0,2,40738,50000,3045,48550,0,0,0,0,0.00,0.00,0.00,0.00
2017-04-07 19:20:00,2,48063,0,0.00,2,2,0,2,42869,50000,2095,48586,0,0,0,0,0.00,0.00,0.00,0.00
2017-04-07 19:30:00,2,47238,0,0.00,2,2,0,2,42940,50000,2379,47564,0,0,0,0,0.00,0.00,0.00,0.00
2017-04-07 19:40:00,2,41608,0,0.00,2,2,0,2,31392,50000,5404,42212,0,0,0,0,0.00,0.00,0.00,0.00
2017-04-07 19:50:00,2,47584,0,0.00,2,2,0,2,43679,50000,1992,48055,0,0,0,0,0.00,0.00,0.00,0.00
2017-04-07 20:00:00,2,49660,0,0.00,2,2,0,2,47193,50000,841,50000,0,0,0,0,0.00,0.00,0.00,0.00
2017-04-07 20:10:00,2,49873,0,0.00,2,2,0,2,48976,50000,308,50000,0,0,0,0,0.00,0.00,0.00,0.00
2017-04-07 20:20:00,2,47844,0,0.00,2,2,0,2,42449,50000,2658,48984,0,0,0,0,0.00,0.00,0.00,0.00
2017-04-07 20:30:00,2,46690,0,0.00,2,2,0,2,43533,50000,2363,46292,0,0,0,0,0.00,0.00,0.00,0.00
2017-04-07 20:40:00,2,50000,0,0.00,2,2,0,2,50000,50000,0,50000,0,0,0,0,0.00,0.00,0.00,0.00
2017-04-07 20:50:00,2,49841,0,0.00,2,2,0,2,48814,50000,363,50000,0,0,0,0,0.00,0.00,0.00,0.00
2017-04-07 21:00:00,2,45268,0,0.00,2,2,0,2,37205,50000,5044,47672,0,0,0,0,0.00,0.00,0.00,0.00
2017-04-07 21:10:00,2,45075,0,0.00,2,2,0,2,35894,50000,4819,45736,0,0,0,0,0.00,0.00,0.00,0.00
2017-04-07 21:20:00,2,44802,0,0.00,2,2,0,2,41473,47348,1846,45387,0,0,0,0,0.00,0.00,0.00,0.00
2017-04-07 21:30:00,2,49551,0,0.00,2,2,0,2,47911,50000,691,50000,0,0,0,0,0.00,0.00,0.00,0.00
2017-04-07 21:40:00,2,49700,0,0.00,2,2,0,2,47898,50000,658,50000,0,0,0,0,0.00,0.00,0.00,0.00
2017-04-07 21:50:00,2,49575,0,0.00,2,2,0,2,45842,50000,1245,50000,0,0,0,0,0.00,0.00,0.00,0.00
2017-04-07 22:00:00,2,50000,0,0.00,2,2,0,2,50000,50000,0,50000,0,0,0,0,0.00,0.00,0.00,0.00
2017-04-07 22:10:00,2,49335,0,0.00,2,2,0,2,46510,50000,1332,50000,0,0,0,0,0.00,0.00,0.00,0.00
2017-04-07 22:20:00,2,49652,0,0.00,2,2,0,2,47347,50000,807,50000,0,0,0,0,0.00,0.00,0.00,0.00
2017-04-07 22:30:00,2,49961,0,0.00,2,2,0,2,49606,50000,118,50000,0,0,0,0,0.00,0.00,0.00,0.00
2017-04-07 22:40:00,2,49846,0,0.00,2,2,0,2,48721,50000,383,50000,0,0,0,0,0.00,0.00,0.00,0.00
2017-04-07 22:50:00,2,47752,0,0.00,2,2,0,2,40221,50000,3456,49544,0,0,0,0,0.00,0.00,0.00,0.00
2017-04-07 23:00:00,2,46470,0,0.00,2,2,0,2,37473,50000,4371,48368,0,0,0,0,0.00,0.00,0.00,0.00
2017-04-07 23:10:00,2,43619,0,0.00,2,2,0,2,36060,50000,5088,43702,0,0,0,0,0.00,0.00,0.00,0.00
2017-04-07 23:20:00,2,42398,0,0.00,2,2,0,2,32425,50000,5506,43634,0,0,0,0,0.00,0.00,0.00,0.00
2017-04-07 23:30:00,2,40108,0,0.00,2,2,0,2,28000,50000,7479,41366,0,0,0,0,0.00,0.00,0.00,0.00
2017-04-07 23:40:00,2,45204,0,0.00,2,2,0,2,37760,48477,2965,45960,0,0,0,0,0.00,0.00,0.00,0.00
2017-04-07 23:50:00,2,32716,0,0.00,2,2,0,2,16637,50000,10028,31557,0,0,0,0,0.00,0.00,0.00,0.00
